Regional Weather Roundup
Issued by NWS State College, PA

Home | Current Version | Previous Version | Text Only | Print | Product List | Glossary On
Versions: 1 2 3 4 5 6 7 8 9 10 11 12 13 14 15 16 17 18 19 20 21 22 23 24 25 26 27 28 29 30 31 32 33 34 35 36 37 38 39 40 41 42 43 44 45 46 47 48 49 50
000
ASUS41 KCTP 031503
RWRCTP

REGIONAL WEATHER ROUNDUP
NATIONAL WEATHER SERVICE STATE COLLEGE PA
1100 AM EDT MON AUG 03 2015

Note: "fair" indicates few or no clouds below 12,000 feet with no
significant weather and/or obstructions to visibility.

* = STATION THAT DOES NOT REPORT PRECIPITATION /E.G. RAIN...SNOW...ETC/
    THUNDER OR FOG.

PAZ002>004-007>009-013>016-020>023-029>032-031600-
WESTERN PENNSYLVANIA

CITY           SKY/WX    TMP DP  RH WIND       PRES   REMARKS
ERIE           MOSUNNY   74  57  55 W10G20    29.80R
MEADVILLE      PTSUNNY   74  56  53 W10       29.82S
FRANKLIN*      PTSUNNY   73  55  53 W9        29.85S
NEW CASTLE     FAIR      76  61  59 SW9       29.84R
BEAVER COUNTY  SUNNY     73  59  60 W7        29.84R
BUTLER*        CLOUDY    73  59  60 W7        29.86R
PITTSBURGH INT CLOUDY    74  56  53 SW13      29.84R
PITTSBURGH     CLOUDY    74  56  53 SW13G21   29.84R
INDIANA*       SUNNY     72  63  73 W10       29.89R
LATROBE        NOT AVBL
WASHINGTON CO* NOT AVBL
$$

PAZ004>006-010>012-017>019-024>028-033>037-041-042-045-046-049>053-031600-
CENTRAL PENNSYLVANIA

CITY           SKY/WX    TMP DP  RH WIND       PRES   REMARKS
BRADFORD       CLOUDY    70  56  61 VRB7G18   29.85R
DUBOIS         CLOUDY    72  59  63 SW10      29.85R
CLEARFIELD     CLOUDY    72  62  71 SW8       29.86R
JOHNSTOWN      PTSUNNY   72  59  63 SW9       29.89R
ALTOONA        MOSUNNY   78  61  55 SW12G17   29.86S
STATE COLLEGE  SUNNY     75  63  64 SW10      29.84R
WILLIAMSPORT   MOSUNNY   80  63  55 S9        29.79S
SELINSGROVE    SUNNY     81  64  56 S9        29.81F
FT INDIANTOWN  NOT AVBL
CAPITAL CITY   SUNNY     83  61  47 SW8       29.84F
HARRISBURG     MOSUNNY   84  64  50 S7        29.83F
YORK           SUNNY     82  65  56 SW7       29.86F
$$

PAZ038>040-043-044-047-048-054-055-060>062-067>071-031600-
EASTERN PENNSYLVANIA

CITY           SKY/WX    TMP DP  RH WIND       PRES   REMARKS
SCRANTON       SUNNY     81  61  50 SW14      29.82S
MOUNT POCONO   SUNNY     78  60  53 S9        29.88F
ALLENTOWN      SUNNY     82  64  54 SW12      29.85S
QUAKERTOWN*    SUNNY     81  64  57 SW9       29.88S
READING        SUNNY     81  63  54 SW12      29.84S
LANCASTER      SUNNY     81  63  54 SW12      29.86S
COATESVILLE    SUNNY     77  66  69 S6        29.90R
POTTSTOWN      SUNNY     80  65  59 VRB6      29.88S
BLUE BELL      MOSUNNY   82  64  54 SW7       29.86F
DOYLESTOWN     MOSUNNY   81  63  54 SW7       29.86S
WILLOW GROVE   NOT AVBL
NORTH PHILA    PTSUNNY   86  61  42 SW13G28   29.88R
PHILADELPHIA   MOSUNNY   85  62  46 SW17      29.87S
$$


USA.gov is the U.S. government's official web portal to all federal, state and local government web resources and services.